DLH335 LIMC-LICC

Flight info

Callsign DLH335
Flight time 1h 45m
Altitude 40000
Route ROBAS DCT BEROK DCT TINKU DCT LURON DCT BEKIV DCT ENEPA M871 LIBRO
Aircraft A346/H-SDE2E3FGHIJ3J4J5M1RWXY/LB1D1

Departure

Time 2026-05-06 17:13
Airport Milan Malpensa International Airport (LIMC)

Arrival

Time 2026-05-06 18:58
Airport Catania-Fontanarossa Airport (LICC)
Time Latitude Longitude Altitude Speed Heading
2026-05-06 16:56 45.62818 8.71683 745 ft 0 kts 259°
2026-05-06 17:04 45.62822 8.71713 743 ft 4 kts 260°
2026-05-06 17:04 45.62825 8.71746 740 ft 4 kts 261°
2026-05-06 17:04 45.62830 8.71768 740 ft 4 kts 221°
2026-05-06 17:05 45.62841 8.71773 740 ft 4 kts 178°
2026-05-06 17:05 45.62868 8.71770 741 ft 4 kts 178°
2026-05-06 17:05 45.62865 8.71770 741 ft 4 kts 180°
2026-05-06 17:05 45.62863 8.71771 741 ft 0 kts 169°
2026-05-06 17:06 45.62858 8.71772 741 ft 2 kts 169°
2026-05-06 17:07 45.62836 8.71778 740 ft 5 kts 169°
2026-05-06 17:07 45.62790 8.71791 741 ft 8 kts 169°
2026-05-06 17:07 45.62719 8.71810 745 ft 13 kts 169°
2026-05-06 17:07 45.62595 8.71844 742 ft 25 kts 169°
2026-05-06 17:08 45.62375 8.71904 745 ft 38 kts 169°
2026-05-06 17:08 45.62100 8.71981 744 ft 40 kts 169°
2026-05-06 17:08 45.61817 8.72060 743 ft 45 kts 169°
2026-05-06 17:08 45.61477 8.72155 745 ft 53 kts 169°
2026-05-06 17:09 45.61118 8.72256 742 ft 51 kts 169°
2026-05-06 17:09 45.60781 8.72349 744 ft 43 kts 169°
2026-05-06 17:09 45.60628 8.72628 743 ft 38 kts 97°
2026-05-06 17:09 45.60601 8.72983 746 ft 37 kts 96°
2026-05-06 17:10 45.60679 8.73287 743 ft 34 kts 29°
2026-05-06 17:10 45.60899 8.73398 745 ft 33 kts
2026-05-06 17:10 45.61119 8.73347 744 ft 32 kts 347°
2026-05-06 17:10 45.61339 8.73282 743 ft 35 kts 349°
2026-05-06 17:11 45.61574 8.73231 743 ft 23 kts 17°
2026-05-06 17:11 45.61621 8.73432 745 ft 23 kts 104°
2026-05-06 17:11 45.61596 8.73659 743 ft 23 kts 63°
2026-05-06 17:11 45.61715 8.73708 744 ft 18 kts 352°
2026-05-06 17:12 45.61907 8.73660 742 ft 54 kts 349°
2026-05-06 17:12 45.62492 8.73496 745 ft 115 kts 349°
2026-05-06 17:12 45.63462 8.73225 743 ft 166 kts 349°
2026-05-06 17:12 45.64670 8.72888 1165 ft 177 kts 349°
2026-05-06 17:13 45.65862 8.72634 1748 ft 179 kts 358°
2026-05-06 17:13 45.67137 8.72625 2394 ft 182 kts
2026-05-06 17:13 45.68455 8.72607 2857 ft 193 kts
2026-05-06 17:13 45.69851 8.72628 3188 ft 209 kts
2026-05-06 17:14 45.71375 8.72758 3534 ft 226 kts 12°
2026-05-06 17:14 45.72794 8.73812 3896 ft 240 kts 48°
2026-05-06 17:14 45.73624 8.75894 4568 ft 243 kts 69°
2026-05-06 17:14 45.74245 8.78144 5385 ft 243 kts 73°
2026-05-06 17:15 45.74493 8.80502 6148 ft 244 kts 97°
2026-05-06 17:15 45.74074 8.82891 6814 ft 250 kts 113°
2026-05-06 17:15 45.73307 8.85152 7526 ft 254 kts 123°
2026-05-06 17:15 45.72296 8.87254 8332 ft 257 kts 129°
2026-05-06 17:16 45.71210 8.89320 9150 ft 261 kts 129°
2026-05-06 17:16 45.70107 8.91417 9929 ft 266 kts 129°
2026-05-06 17:16 45.68995 8.93566 10656 ft 270 kts 129°
2026-05-06 17:16 45.67873 8.95754 11426 ft 274 kts 130°
2026-05-06 17:17 45.66738 8.97979 12217 ft 278 kts 130°
2026-05-06 17:17 45.65588 9.00237 13014 ft 282 kts 130°
2026-05-06 17:17 45.64402 9.02455 13761 ft 284 kts 134°
2026-05-06 17:17 45.63075 9.04614 14291 ft 295 kts 137°
2026-05-06 17:18 45.61649 9.06850 14660 ft 312 kts 137°
2026-05-06 17:18 45.60133 9.09217 15015 ft 330 kts 137°
2026-05-06 17:18 45.58543 9.11705 15354 ft 348 kts 137°
2026-05-06 17:18 45.56865 9.14334 15668 ft 366 kts 136°
2026-05-06 17:19 45.55111 9.17085 15984 ft 384 kts 136°
2026-05-06 17:19 45.53244 9.20011 16297 ft 400 kts 136°
2026-05-06 17:19 45.51344 9.22992 16752 ft 411 kts 136°
2026-05-06 17:19 45.49323 9.26165 17539 ft 415 kts 136°
2026-05-06 17:20 45.47347 9.29264 18305 ft 418 kts 137°
2026-05-06 17:20 45.45374 9.32349 18925 ft 422 kts 137°
2026-05-06 17:20 45.43409 9.35418 19532 ft 427 kts 137°
2026-05-06 17:20 45.41383 9.38575 20148 ft 431 kts 137°
2026-05-06 17:21 45.39331 9.41767 20778 ft 436 kts 137°
2026-05-06 17:21 45.37269 9.44972 21398 ft 440 kts 138°
2026-05-06 17:21 45.35192 9.48196 21992 ft 444 kts 138°
2026-05-06 17:21 45.33090 9.51454 22576 ft 449 kts 138°
2026-05-06 17:22 45.30960 9.54752 23186 ft 453 kts 138°
2026-05-06 17:22 45.28817 9.58064 23776 ft 457 kts 139°
2026-05-06 17:22 45.26649 9.61410 24252 ft 461 kts 139°
2026-05-06 17:22 45.24467 9.64775 24734 ft 464 kts 139°
2026-05-06 17:23 45.22295 9.68097 25201 ft 465 kts 141°
2026-05-06 17:23 45.19892 9.71150 25702 ft 462 kts 148°
2026-05-06 17:23 45.17208 9.73745 26231 ft 457 kts 156°
2026-05-06 17:23 45.14421 9.75759 26708 ft 455 kts 162°
2026-05-06 17:24 45.11518 9.77570 27218 ft 457 kts 163°
2026-05-06 17:24 45.08590 9.79355 27723 ft 460 kts 163°
2026-05-06 17:24 45.05641 9.81151 28230 ft 462 kts 163°
2026-05-06 17:24 45.02699 9.82950 28929 ft 460 kts 163°
2026-05-06 17:25 44.99706 9.84788 29752 ft 456 kts 164°
2026-05-06 17:25 44.96794 9.86577 30425 ft 453 kts 164°
2026-05-06 17:25 44.94882 9.87752 30820 ft 452 kts 164°
2026-05-06 17:25 44.91041 9.90109 31573 ft 451 kts 164°
2026-05-06 17:26 44.88158 9.91876 32126 ft 450 kts 165°
2026-05-06 17:26 44.85249 9.93657 32677 ft 450 kts 165°
2026-05-06 17:26 44.82402 9.95400 33229 ft 449 kts 165°
2026-05-06 17:26 44.79534 9.97154 33744 ft 448 kts 165°
2026-05-06 17:27 44.76683 9.98894 34205 ft 447 kts 165°
2026-05-06 17:27 44.73815 10.00638 34621 ft 446 kts 165°
2026-05-06 17:27 44.70966 10.02369 35009 ft 447 kts 165°
2026-05-06 17:27 44.68108 10.04105 35375 ft 447 kts 165°
2026-05-06 17:28 44.65237 10.05850 35758 ft 447 kts 164°
2026-05-06 17:28 44.62379 10.07585 36127 ft 447 kts 164°
2026-05-06 17:28 44.59475 10.09347 36518 ft 448 kts 164°
2026-05-06 17:28 44.56611 10.11083 36839 ft 448 kts 164°
2026-05-06 17:29 44.53746 10.12819 37141 ft 449 kts 163°
2026-05-06 17:29 44.50898 10.14543 37450 ft 449 kts 163°
2026-05-06 17:29 44.48024 10.16281 37758 ft 450 kts 163°
2026-05-06 17:29 44.45141 10.18021 38050 ft 450 kts 163°
2026-05-06 17:30 44.42270 10.19752 38297 ft 451 kts 163°
2026-05-06 17:30 44.39377 10.21494 38557 ft 452 kts 163°
2026-05-06 17:30 44.36475 10.23240 38747 ft 454 kts 163°
2026-05-06 17:30 44.33567 10.24989 38905 ft 455 kts 163°
2026-05-06 17:31 44.30639 10.26748 39086 ft 456 kts 163°
2026-05-06 17:31 44.27717 10.28500 39248 ft 457 kts 163°
2026-05-06 17:31 44.24821 10.30234 39393 ft 459 kts 163°
2026-05-06 17:31 44.21888 10.31989 39501 ft 460 kts 163°
2026-05-06 17:32 44.18935 10.33754 39615 ft 462 kts 163°
2026-05-06 17:32 44.12906 10.36900 39878 ft 460 kts 167°
2026-05-06 17:33 44.06829 10.39765 39932 ft 462 kts 167°
2026-05-06 17:33 44.00713 10.42649 39940 ft 463 kts 167°
2026-05-06 17:34 43.94632 10.45508 39949 ft 463 kts 167°
2026-05-06 17:34 43.88520 10.48373 39952 ft 463 kts 167°
2026-05-06 17:35 43.82410 10.51230 39949 ft 463 kts 167°
2026-05-06 17:35 43.76316 10.54124 39952 ft 465 kts 165°
2026-05-06 17:36 43.67310 10.59212 39947 ft 466 kts 164°
2026-05-06 17:36 43.61301 10.62623 39949 ft 466 kts 164°
2026-05-06 17:37 43.56293 10.65460 39951 ft 466 kts 164°
2026-05-06 17:37 43.49314 10.69406 39948 ft 466 kts 164°
2026-05-06 17:38 43.44277 10.72248 39953 ft 466 kts 164°
2026-05-06 17:38 43.38220 10.75657 39962 ft 467 kts 164°
2026-05-06 17:39 43.32240 10.79020 39943 ft 466 kts 164°
2026-05-06 17:39 43.26228 10.82389 39956 ft 467 kts 164°
2026-05-06 17:40 43.20216 10.85755 39940 ft 466 kts 164°
2026-05-06 17:40 43.14197 10.89115 39952 ft 467 kts 164°
2026-05-06 17:41 43.08568 10.92250 39951 ft 466 kts 164°
2026-05-06 17:41 43.02544 10.95599 39948 ft 467 kts 164°
2026-05-06 17:42 42.96495 10.98955 39950 ft 467 kts 164°
2026-05-06 17:42 42.90473 11.02289 39948 ft 467 kts 164°
2026-05-06 17:43 42.84471 11.05605 39951 ft 466 kts 164°
2026-05-06 17:43 42.78455 11.08922 39948 ft 466 kts 164°
2026-05-06 17:44 42.72429 11.12237 39948 ft 466 kts 164°
2026-05-06 17:44 42.66417 11.15538 39946 ft 466 kts 164°
2026-05-06 17:45 42.60395 11.18836 39954 ft 466 kts 164°
2026-05-06 17:45 42.54375 11.22128 39954 ft 466 kts 164°
2026-05-06 17:46 42.48485 11.25342 39958 ft 466 kts 164°
2026-05-06 17:46 42.42457 11.28622 39964 ft 463 kts 164°
2026-05-06 17:47 42.36482 11.31871 39960 ft 463 kts 164°
2026-05-06 17:47 42.30503 11.35112 39960 ft 463 kts 164°
2026-05-06 17:48 42.24559 11.38329 39958 ft 463 kts 164°
2026-05-06 17:48 42.18596 11.41550 39962 ft 463 kts 164°
2026-05-06 17:49 42.12564 11.44801 39963 ft 463 kts 164°
2026-05-06 17:49 42.06586 11.48017 39960 ft 463 kts 164°
2026-05-06 17:50 42.00605 11.51227 39965 ft 463 kts 164°
2026-05-06 17:50 41.94609 11.54440 39962 ft 463 kts 164°
2026-05-06 17:51 41.88620 11.57641 39967 ft 463 kts 164°
2026-05-06 17:51 41.82663 11.60820 39963 ft 463 kts 164°
2026-05-06 17:52 41.76622 11.64036 39966 ft 464 kts 164°
2026-05-06 17:52 41.70611 11.67230 39965 ft 464 kts 164°
2026-05-06 17:53 41.64605 11.70414 39970 ft 464 kts 164°
2026-05-06 17:53 41.58583 11.73602 39971 ft 464 kts 164°
2026-05-06 17:54 41.52568 11.76778 39969 ft 465 kts 164°
2026-05-06 17:54 41.46584 11.79932 39973 ft 465 kts 164°
2026-05-06 17:55 41.40561 11.83101 39971 ft 465 kts 164°
2026-05-06 17:55 41.34531 11.86266 39973 ft 465 kts 164°
2026-05-06 17:56 41.28504 11.89424 39975 ft 465 kts 164°
2026-05-06 17:56 41.22470 11.92579 39983 ft 465 kts 164°
2026-05-06 17:57 41.16459 11.95715 39983 ft 466 kts 164°
2026-05-06 17:57 41.10412 11.98865 39983 ft 466 kts 164°
2026-05-06 17:58 41.04350 12.02016 39982 ft 466 kts 164°
2026-05-06 17:58 40.98308 12.05150 39986 ft 467 kts 164°
2026-05-06 17:59 40.92256 12.08283 39986 ft 467 kts 164°
2026-05-06 17:59 40.86199 12.11414 39991 ft 467 kts 164°
2026-05-06 18:00 40.80177 12.14519 39990 ft 467 kts 164°
2026-05-06 18:00 40.74120 12.17637 39993 ft 467 kts 164°
2026-05-06 18:01 40.68059 12.20749 39993 ft 467 kts 164°
2026-05-06 18:01 40.61993 12.23859 39995 ft 468 kts 164°
2026-05-06 18:02 40.55928 12.26963 40000 ft 468 kts 165°
2026-05-06 18:02 40.49857 12.30064 40000 ft 468 kts 165°
2026-05-06 18:03 40.43786 12.33157 40004 ft 468 kts 164°
2026-05-06 18:03 40.37710 12.36247 40005 ft 468 kts 164°
2026-05-06 18:04 40.31630 12.39334 40006 ft 468 kts 164°
2026-05-06 18:04 40.25525 12.42428 40008 ft 468 kts 165°
2026-05-06 18:05 40.19478 12.45487 40007 ft 469 kts 164°
2026-05-06 18:05 40.13380 12.48564 40008 ft 469 kts 164°
2026-05-06 18:06 40.07291 12.51632 40008 ft 469 kts 164°
2026-05-06 18:06 40.01200 12.54695 40009 ft 469 kts 164°
2026-05-06 18:07 39.95080 12.57766 40003 ft 469 kts 164°
2026-05-06 18:07 39.89016 12.60804 40003 ft 470 kts 164°
2026-05-06 18:08 39.82889 12.63867 40010 ft 470 kts 164°
2026-05-06 18:08 39.76770 12.66920 40011 ft 470 kts 164°
2026-05-06 18:09 39.70657 12.69965 40006 ft 470 kts 164°
2026-05-06 18:09 39.64561 12.72996 40008 ft 471 kts 165°
2026-05-06 18:10 39.58426 12.76039 40003 ft 472 kts 165°
2026-05-06 18:10 39.52284 12.79081 40003 ft 472 kts 165°
2026-05-06 18:11 39.47150 12.81619 40001 ft 473 kts 165°
2026-05-06 18:11 39.39906 12.85193 40001 ft 473 kts 165°
2026-05-06 18:12 39.33747 12.88225 40000 ft 473 kts 165°
2026-05-06 18:12 39.27574 12.91259 40000 ft 474 kts 165°
2026-05-06 18:13 39.21397 12.94289 40000 ft 474 kts 165°
2026-05-06 18:13 39.15227 12.97310 39995 ft 475 kts 165°
2026-05-06 18:14 39.09040 13.00333 39995 ft 475 kts 165°
2026-05-06 18:14 39.02842 13.03356 39994 ft 476 kts 165°
2026-05-06 18:15 38.96635 13.06376 39987 ft 476 kts 165°
2026-05-06 18:15 38.90480 13.09366 39884 ft 474 kts 165°
2026-05-06 18:16 38.87393 13.10864 39342 ft 475 kts 165°
2026-05-06 18:16 38.84318 13.12483 38594 ft 482 kts 162°
2026-05-06 18:16 38.81245 13.14232 37800 ft 484 kts 161°
2026-05-06 18:16 38.78169 13.15985 37094 ft 484 kts 161°
2026-05-06 18:17 38.75081 13.17743 36391 ft 484 kts 161°
2026-05-06 18:17 38.72012 13.19492 35831 ft 481 kts 160°
2026-05-06 18:17 38.68966 13.21225 35326 ft 477 kts 160°
2026-05-06 18:17 38.65902 13.22968 34830 ft 474 kts 160°
2026-05-06 18:18 38.62900 13.24672 34341 ft 471 kts 160°
2026-05-06 18:18 38.59916 13.26364 33846 ft 467 kts 160°
2026-05-06 18:18 38.56950 13.28045 33282 ft 464 kts 160°
2026-05-06 18:18 38.54996 13.29152 32897 ft 463 kts 160°
2026-05-06 18:19 38.51078 13.31369 32087 ft 463 kts 160°
2026-05-06 18:19 38.48131 13.33033 31464 ft 463 kts 159°
2026-05-06 18:19 38.45169 13.34704 30834 ft 463 kts 159°
2026-05-06 18:19 38.42218 13.36367 30197 ft 464 kts 159°
2026-05-06 18:20 38.39265 13.38030 29465 ft 465 kts 159°
2026-05-06 18:20 38.37258 13.39160 28978 ft 466 kts 159°
2026-05-06 18:20 38.34329 13.40809 28264 ft 466 kts 159°
2026-05-06 18:20 38.31338 13.42491 27565 ft 466 kts 159°
2026-05-06 18:21 38.28367 13.44161 27110 ft 460 kts 159°
2026-05-06 18:21 38.25454 13.45796 26651 ft 456 kts 160°
2026-05-06 18:21 38.22562 13.47418 26133 ft 453 kts 160°
2026-05-06 18:21 38.19681 13.49031 25660 ft 450 kts 160°
2026-05-06 18:22 38.16827 13.50628 25201 ft 446 kts 160°
2026-05-06 18:22 38.14954 13.51676 24902 ft 444 kts 160°
2026-05-06 18:23 38.05819 13.56778 23459 ft 433 kts 160°
2026-05-06 18:23 38.03079 13.58309 22967 ft 429 kts 160°
2026-05-06 18:23 38.00342 13.59834 22480 ft 426 kts 160°
2026-05-06 18:23 37.97614 13.61351 22027 ft 423 kts 161°
2026-05-06 18:24 37.94907 13.62854 21561 ft 420 kts 161°
2026-05-06 18:24 37.92245 13.64332 21114 ft 417 kts 161°
2026-05-06 18:24 37.89687 13.66085 20660 ft 421 kts 148°
2026-05-06 18:24 37.87556 13.68680 20188 ft 428 kts 132°
2026-05-06 18:25 37.86041 13.71953 19730 ft 434 kts 117°
2026-05-06 18:25 37.84919 13.75502 19295 ft 433 kts 115°
2026-05-06 18:25 37.83851 13.79066 18834 ft 431 kts 115°
2026-05-06 18:25 37.82780 13.82615 18397 ft 430 kts 115°
2026-05-06 18:26 37.81695 13.86146 17879 ft 430 kts 115°
2026-05-06 18:26 37.80601 13.89656 17415 ft 427 kts 116°
2026-05-06 18:26 37.79505 13.93139 16981 ft 423 kts 116°
2026-05-06 18:26 37.78418 13.96584 16566 ft 419 kts 116°
2026-05-06 18:27 37.77339 13.99995 16161 ft 416 kts 116°
2026-05-06 18:27 37.76262 14.03354 15732 ft 413 kts 117°
2026-05-06 18:27 37.75168 14.06727 15312 ft 410 kts 117°
2026-05-06 18:27 37.74086 14.10048 14906 ft 407 kts 117°
2026-05-06 18:28 37.73012 14.13345 14503 ft 404 kts 117°
2026-05-06 18:28 37.71942 14.16624 14092 ft 401 kts 117°
2026-05-06 18:28 37.70882 14.19872 13671 ft 398 kts 117°
2026-05-06 18:28 37.69829 14.23083 13243 ft 394 kts 117°
2026-05-06 18:29 37.68784 14.26271 12835 ft 390 kts 117°
2026-05-06 18:29 37.67751 14.29424 12444 ft 386 kts 117°
2026-05-06 18:29 37.66724 14.32556 12050 ft 383 kts 117°
2026-05-06 18:29 37.65714 14.35640 11913 ft 370 kts 117°
2026-05-06 18:30 37.64751 14.38587 11816 ft 355 kts 117°
2026-05-06 18:30 37.63822 14.41421 11721 ft 342 kts 117°
2026-05-06 18:30 37.62933 14.44148 11607 ft 330 kts 115°
2026-05-06 18:30 37.62371 14.46927 11506 ft 323 kts 102°
2026-05-06 18:31 37.62309 14.49736 11410 ft 316 kts 90°
2026-05-06 18:31 37.62493 14.52460 11324 ft 306 kts 88°
2026-05-06 18:31 37.62706 14.55078 11234 ft 294 kts 88°
2026-05-06 18:31 37.62905 14.57612 11156 ft 282 kts 89°
2026-05-06 18:32 37.63084 14.60046 11087 ft 277 kts 89°
2026-05-06 18:32 37.63252 14.62474 11011 ft 277 kts 89°
2026-05-06 18:32 37.63417 14.64896 10989 ft 276 kts 89°
2026-05-06 18:32 37.63581 14.67324 11010 ft 276 kts 89°
2026-05-06 18:33 37.63739 14.69768 11011 ft 275 kts 93°
2026-05-06 18:33 37.63374 14.72057 10982 ft 262 kts 126°
2026-05-06 18:33 37.62155 14.73688 10735 ft 252 kts 156°
2026-05-06 18:33 37.60516 14.74304 10394 ft 244 kts 176°
2026-05-06 18:34 37.58828 14.74524 10076 ft 243 kts 176°
2026-05-06 18:34 37.57151 14.74754 9771 ft 242 kts 176°
2026-05-06 18:34 37.55521 14.74525 9375 ft 240 kts 205°
2026-05-06 18:34 37.54249 14.73203 9137 ft 240 kts 234°
2026-05-06 18:35 37.53675 14.71212 8840 ft 248 kts 259°
2026-05-06 18:35 37.53496 14.69042 8560 ft 248 kts 260°
2026-05-06 18:35 37.53323 14.66882 8275 ft 247 kts 259°
2026-05-06 18:35 37.53144 14.64727 7980 ft 246 kts 259°
2026-05-06 18:36 37.52962 14.62580 7936 ft 247 kts 259°
2026-05-06 18:36 37.52773 14.60420 7960 ft 248 kts 259°
2026-05-06 18:36 37.52584 14.58283 7971 ft 248 kts 259°
2026-05-06 18:36 37.52393 14.56123 7999 ft 249 kts 259°
2026-05-06 18:37 37.52201 14.53941 7990 ft 248 kts 259°
2026-05-06 18:37 37.52008 14.51782 7986 ft 245 kts 259°
2026-05-06 18:37 37.51829 14.49705 7991 ft 230 kts 258°
2026-05-06 18:37 37.51663 14.47783 8002 ft 211 kts 257°
2026-05-06 18:38 37.51274 14.46143 7932 ft 181 kts 233°
2026-05-06 18:38 37.50485 14.45052 7925 ft 164 kts 210°
2026-05-06 18:38 37.49449 14.44469 7948 ft 165 kts 190°
2026-05-06 18:38 37.48301 14.44415 7986 ft 167 kts 176°
2026-05-06 18:39 37.47145 14.44562 7983 ft 167 kts 174°
2026-05-06 18:39 37.45990 14.44728 7986 ft 167 kts 173°
2026-05-06 18:39 37.44837 14.44897 7977 ft 167 kts 174°
2026-05-06 18:40 37.42756 14.45965 7931 ft 172 kts 125°
2026-05-06 18:40 37.42314 14.47345 7643 ft 172 kts 112°
2026-05-06 18:40 37.42038 14.48787 7379 ft 166 kts 104°
2026-05-06 18:40 37.41938 14.50240 7215 ft 168 kts 97°
2026-05-06 18:41 37.41986 14.51725 7077 ft 170 kts 90°
2026-05-06 18:41 37.42151 14.53204 6935 ft 170 kts 88°
2026-05-06 18:41 37.42330 14.54675 6799 ft 170 kts 88°
2026-05-06 18:41 37.42501 14.56138 6665 ft 168 kts 89°
2026-05-06 18:42 37.42659 14.57592 6521 ft 167 kts 90°
2026-05-06 18:42 37.42803 14.59037 6354 ft 167 kts 90°
2026-05-06 18:42 37.42939 14.60490 6213 ft 166 kts 90°
2026-05-06 18:42 37.43067 14.61936 6078 ft 165 kts 90°
2026-05-06 18:43 37.43188 14.63366 5927 ft 163 kts 90°
2026-05-06 18:43 37.43302 14.64781 5769 ft 162 kts 90°
2026-05-06 18:43 37.43411 14.66192 5631 ft 162 kts 90°
2026-05-06 18:43 37.43520 14.67605 5445 ft 161 kts 90°
2026-05-06 18:44 37.43626 14.69000 5279 ft 159 kts 90°
2026-05-06 18:44 37.43731 14.70379 5077 ft 158 kts 90°
2026-05-06 18:44 37.43834 14.71750 4917 ft 157 kts 89°
2026-05-06 18:44 37.43940 14.73134 4743 ft 156 kts 89°
2026-05-06 18:45 37.44045 14.74491 4548 ft 155 kts 89°
2026-05-06 18:45 37.44150 14.75846 4369 ft 155 kts 89°
2026-05-06 18:45 37.44164 14.76022 4346 ft 155 kts 89°
2026-05-06 18:52 37.44259 14.77252 4192 ft 154 kts 88°
2026-05-06 18:52 37.44367 14.78599 4008 ft 154 kts 88°
2026-05-06 18:52 37.44474 14.79940 3846 ft 153 kts 87°
2026-05-06 18:53 37.44581 14.81275 3817 ft 153 kts 87°
2026-05-06 18:53 37.44690 14.82616 3614 ft 153 kts 88°
2026-05-06 18:53 37.44796 14.83932 3431 ft 153 kts 87°
2026-05-06 18:53 37.44833 14.84383 3358 ft 153 kts 87°
2026-05-06 18:54 37.45014 14.86586 3001 ft 151 kts 88°
2026-05-06 18:54 37.45115 14.87817 2824 ft 150 kts 88°
2026-05-06 18:54 37.45222 14.89131 2625 ft 150 kts 86°
2026-05-06 18:54 37.45329 14.90439 2422 ft 150 kts 85°
2026-05-06 18:55 37.45439 14.91744 2233 ft 149 kts 85°
2026-05-06 18:55 37.45548 14.93045 2020 ft 149 kts 86°
2026-05-06 18:55 37.45652 14.94341 1819 ft 148 kts 85°
2026-05-06 18:55 37.45759 14.95630 1645 ft 148 kts 86°
2026-05-06 18:56 37.45867 14.96919 1418 ft 147 kts 87°
2026-05-06 18:56 37.45972 14.98202 1230 ft 147 kts 86°
2026-05-06 18:56 37.46076 14.99478 1017 ft 146 kts 83°
2026-05-06 18:56 37.46184 15.00746 832 ft 146 kts 83°
2026-05-06 18:57 37.46290 15.02016 613 ft 145 kts 84°
2026-05-06 18:57 37.46393 15.03281 437 ft 145 kts 80°
2026-05-06 18:57 37.46515 15.04533 241 ft 143 kts 82°
2026-05-06 18:57 37.46606 15.05779 55 ft 140 kts 83°
2026-05-06 18:58 37.46699 15.06875 45 ft 93 kts 84°
2026-05-06 18:58 37.46740 15.07355 45 ft 24 kts 83°
2026-05-06 18:58 37.46761 15.07555 45 ft 23 kts 79°
2026-05-06 18:58 37.46831 15.07736 44 ft 25 kts 50°
2026-05-06 18:59 37.46866 15.07781 42 ft 11 kts 31°
2026-05-06 18:59 37.46933 15.07744 41 ft 12 kts 278°
2026-05-06 18:59 37.46908 15.07405 41 ft 71 kts 263°
2026-05-06 18:59 37.46863 15.06880 40 ft 39 kts 264°
2026-05-06 19:00 37.46835 15.06540 40 ft 39 kts 264°
2026-05-06 19:00 37.46829 15.06399 40 ft 8 kts 290°
2026-05-06 19:00 37.46869 15.06366 40 ft 0 kts 351°
2026-05-06 19:00 37.46922 15.06377 40 ft 14 kts 25°
2026-05-06 19:01 37.46940 15.06389 40 ft 3 kts 27°
2026-05-06 19:01 37.46953 15.06397 40 ft 1 kts 29°
2026-05-06 19:01 37.46963 15.06405 40 ft 0 kts 30°